Regional Weather Roundup
Issued by NWS

Home | Current Version | Previous Version | Text Only | Print | Product List | Glossary Off
Versions: 1 2 3 4 5 6 7 8 9 10 11 12 13 14 15 16 17 18 19 20 21 22 23 24 25 26 27 28 29 30 31 32 33 34 35 36 37 38 39 40 41 42 43 44 45 46 47 48 49 50

000
ASUS43 KIND 280959
RWRIN

WEATHER ROUNDUP FOR INDIANA
NATIONAL WEATHER SERVICE INDIANAPOLIS IN
600 AM EDT THU JUL 28 2016

NOTE: "FAIR" INDICATES FEW OR NO CLOUDS BELOW 12,000 FEET WITH NO
SIGNIFICANT WEATHER AND/OR OBSTRUCTIONS TO VISIBILITY.

* - STATION DOES NOT REPORT WEATHER SUCH AS PRECIPITATION OR FOG.

+ - STATION NOT QUALITY CONTROLLED BY THE NATIONAL WEATHER SERVICE.
    USE DATA WITH CAUTION...ESPECIALLY DEWPOINT AND RELATIVE
    HUMIDITY OBSERVATIONS.

INZ001>003-010>013-019-020-281100-
NORTHWEST INDIANA

CITY           SKY/WX    TMP DP  RH WIND       PRES   REMARKS
GARY /AIRPORT/ CLEAR     68  68 100 CALM      29.90F
KNOX *+        CLOUDY    64  63  94 CALM      29.90S
MONTICELLO +   CLOUDY    67  63  87 CALM      29.90S
RENSSELAER +   MOCLDY    66  66 100 CALM      29.91S FOG

$$

LMZ046-743>745-281100-
SOUTHERN LAKE MICHIGAN

STATION/POSITION TIME  TEMP    WIND        PRES    WAVE
                       AIR SEA DIR/SP/G            HT
                 (UTC) (F)     (DEG/KT/KT) (MB)    (FT)
BURNS HARBOR     0901   73     210/  4/  5 1013.2S
MICHIGAN CITY    0900   74     160/  3/  3   N/A
5NW MICH CITY    0900   76 77  180/  2/  4   N/A     0

$$

INZ004-005-014>016-021>024-281100-
NORTH CENTRAL INDIANA

CITY           SKY/WX    TMP DP  RH WIND       PRES   REMARKS
GOSHEN         CLOUDY    65  62  90 W3        29.91S
SOUTH BEND     PTCLDY    67  65  93 CALM      29.91F
WARSAW +       CLOUDY    66  64  94 CALM      29.91S

$$

INZ006>009-017-018-025>027-281100-
NORTHEAST INDIANA

CITY           SKY/WX    TMP DP  RH WIND       PRES   REMARKS
ANGOLA *+        N/A     64  64 100 CALM      29.91F
FORT WAYNE     CLOUDY    68  64  87 CALM      29.91R

$$

INZ028-029-035-036-043>045-051>053-281100-
WEST CENTRAL INDIANA

CITY           SKY/WX    TMP DP  RH WIND       PRES   REMARKS
CRAWFORDSVL +  CLOUDY    68  68 100 CALM      29.91R
GREENCASTLE +  CLOUDY    70  70 100 CALM      29.91R
LAFAYETTE      CLOUDY    67  67 100 CALM      29.90R
TERRE HAUTE    CLOUDY    74  71  91 SE3       29.90R

$$

INZ030>032-037>040-046>048-054>057-064-065-281100-
CENTRAL INDIANA

CITY           SKY/WX    TMP DP  RH WIND       PRES   REMARKS
INDIANAPOLIS   CLOUDY    74  67  78 S3        29.91R
-EAGLE CREEK   CLOUDY    74  67  78 CALM      29.90R
KOKOMO *+      MOCLDY    66  61  82 CALM      29.91S
SHELBYVILLE    LGT RAIN  75  71  87 SW6       29.90R
ZIONSVILLE +   CLOUDY    66  65  97 N3        29.92R

$$

INZ033-034-041-042-049-050-058-059-281100-
EAST CENTRAL INDIANA

CITY           SKY/WX    TMP DP  RH WIND       PRES   REMARKS
MUNCIE         CLOUDY    70  67  90 NW3       29.91R

$$

INZ060-061-067>069-081>083-085>088-281100-
SOUTHWEST INDIANA

CITY           SKY/WX    TMP DP  RH WIND       PRES   REMARKS
EVANSVILLE     CLOUDY    73  71  93 SE5       29.90S
HUNTINGBURG *+ CLOUDY    73  70  88 S5        29.91S
WASHINGTON +   RAIN      73  73 100 MISG      29.90S

$$

INZ062-063-066-070>080-084-089>092-281100-
SOUTH CENTRAL AND SOUTHEAST INDIANA

CITY           SKY/WX    TMP DP  RH WIND       PRES   REMARKS
BLOOMINGTON    LGT RAIN  72  69  90 S3        29.91F
MADISON *+     CLOUDY    72  70  94 W7        29.94R
SEYMOUR +      TSTM      72  72 100 CALM      29.93R

$$




USA.gov is the U.S. government's official web portal to all federal, state and local government web resources and services.